TimeMDT,TemperatureF,Dew PointF,Humidity,Sea Level PressureIn,VisibilityMPH,Wind Direction,Wind SpeedMPH,Gust SpeedMPH,PrecipitationIn,Events,Conditions,WindDirDegrees,DateUTC
12:15 AM,62.6,60.8,94,29.87,10.0,SE,19.6,28.8,N/A,,Overcast,140,2013-05-27 06:15:00
12:35 AM,60.8,60.8,100,29.86,1.0,SE,20.7,26.5,0.02,Rain-Thunderstorm,Heavy Thunderstorms and Rain,140,2013-05-27 06:35:00
12:55 AM,59.0,59.0,100,29.85,7.0,SSE,18.4,24.2,0.02,,Overcast,150,2013-05-27 06:55:00
1:15 AM,59.0,59.0,100,29.84,10.0,SE,18.4,21.9,N/A,,Overcast,140,2013-05-27 07:15:00
1:35 AM,59.0,59.0,100,29.86,10.0,South,8.1,26.5,N/A,,Overcast,190,2013-05-27 07:35:00
1:55 AM,59.0,59.0,100,29.87,10.0,South,8.1,-,N/A,Thunderstorm,Overcast,190,2013-05-27 07:55:00
2:15 AM,59.0,59.0,100,29.87,1.8,SSW,5.8,-,0.06,Rain-Thunderstorm,Light Rain,200,2013-05-27 08:15:00
2:35 AM,59.0,59.0,100,29.87,3.0,NW,11.5,21.9,0.10,Rain,Light Rain,310,2013-05-27 08:35:00
2:55 AM,55.4,53.6,94,29.86,10.0,North,10.4,-,0.10,,Overcast,350,2013-05-27 08:55:00
3:15 AM,53.6,53.6,100,29.86,10.0,North,6.9,-,N/A,,Overcast,10,2013-05-27 09:15:00
3:35 AM,53.6,53.6,100,29.85,10.0,NNE,6.9,-,N/A,,Overcast,30,2013-05-27 09:35:00
3:55 AM,53.6,53.6,100,29.86,10.0,East,5.8,-,N/A,,Mostly Cloudy,90,2013-05-27 09:55:00
4:15 AM,51.8,51.8,100,29.85,10.0,East,9.2,-,N/A,,Scattered Clouds,100,2013-05-27 10:15:00
4:35 AM,51.8,51.8,100,29.84,10.0,ESE,10.4,-,N/A,,Clear,110,2013-05-27 10:35:00
4:55 AM,51.8,51.8,100,29.84,10.0,East,11.5,-,N/A,,Clear,100,2013-05-27 10:55:00
5:15 AM,51.8,51.8,100,29.84,10.0,ESE,10.4,-,N/A,,Clear,120,2013-05-27 11:15:00
5:35 AM,51.8,51.8,100,29.83,10.0,ESE,9.2,-,N/A,,Clear,110,2013-05-27 11:35:00
5:55 AM,51.8,51.8,100,29.83,10.0,ESE,11.5,-,N/A,,Clear,120,2013-05-27 11:55:00
6:15 AM,53.6,53.6,100,29.83,10.0,SE,6.9,-,N/A,,Clear,130,2013-05-27 12:15:00
6:35 AM,53.6,53.6,100,29.83,10.0,SE,8.1,-,N/A,,Clear,140,2013-05-27 12:35:00
6:55 AM,55.4,55.4,100,29.83,10.0,SE,9.2,-,N/A,,Clear,140,2013-05-27 12:55:00
7:15 AM,57.2,55.4,94,29.82,10.0,SSE,10.4,-,N/A,,Clear,150,2013-05-27 13:15:00
7:35 AM,59.0,57.2,94,29.83,10.0,SSE,12.7,-,N/A,,Partly Cloudy,160,2013-05-27 13:35:00
7:55 AM,59.0,59.0,100,29.81,10.0,SSE,11.5,-,N/A,,Scattered Clouds,160,2013-05-27 13:55:00
8:15 AM,59.0,59.0,100,29.81,10.0,South,11.5,-,N/A,,Mostly Cloudy,170,2013-05-27 14:15:00
8:35 AM,59.0,59.0,100,29.81,10.0,South,10.4,-,N/A,,Overcast,180,2013-05-27 14:35:00
8:55 AM,59.0,59.0,100,29.81,10.0,South,11.5,-,N/A,,Overcast,170,2013-05-27 14:55:00
9:15 AM,59.0,59.0,100,29.82,10.0,SSE,12.7,-,N/A,,Overcast,160,2013-05-27 15:15:00
9:35 AM,59.0,59.0,100,29.81,10.0,SSE,15.0,-,N/A,,Overcast,150,2013-05-27 15:35:00
9:55 AM,59.0,59.0,100,29.80,10.0,South,11.5,-,N/A,,Overcast,170,2013-05-27 15:55:00
10:15 AM,59.0,59.0,100,29.80,10.0,South,12.7,-,N/A,,Overcast,170,2013-05-27 16:15:00
10:35 AM,60.8,59.0,94,29.78,10.0,South,9.2,-,N/A,,Overcast,170,2013-05-27 16:35:00
10:55 AM,62.6,59.0,88,29.78,10.0,SSE,5.8,-,N/A,,Overcast,160,2013-05-27 16:55:00
11:15 AM,62.6,59.0,88,29.77,10.0,Calm,Calm,-,N/A,,Mostly Cloudy,0,2013-05-27 17:15:00
11:35 AM,62.6,59.0,88,29.77,10.0,West,3.5,-,N/A,,Mostly Cloudy,260,2013-05-27 17:35:00
11:55 AM,62.6,59.0,88,29.77,10.0,NW,4.6,-,N/A,,Overcast,310,2013-05-27 17:55:00
12:15 PM,60.8,60.8,100,29.77,10.0,WNW,9.2,-,N/A,Rain,Light Rain,300,2013-05-27 18:15:00
12:35 PM,59.0,59.0,100,29.75,-9999.0,NW,6.9,-,N/A,Rain,Light Rain,310,2013-05-27 18:35:00
12:55 PM,59.0,59.0,100,29.76,7.0,NW,11.5,-,N/A,Rain-Thunderstorm,Light Thunderstorms and Rain,320,2013-05-27 18:55:00
1:15 PM,57.2,57.2,100,29.79,3.0,WNW,9.2,-,0.05,Rain-Thunderstorm,Thunderstorms and Rain,290,2013-05-27 19:15:00
1:35 PM,57.2,57.2,100,29.83,2.5,WSW,10.4,-,0.23,Rain-Thunderstorm,Thunderstorms and Rain,250,2013-05-27 19:35:00
1:55 PM,55.4,55.4,100,29.84,0.5,WSW,13.8,25.3,0.51,Rain-Thunderstorm,Heavy Rain,240,2013-05-27 19:55:00
2:15 PM,55.4,55.4,100,29.78,1.8,NNW,21.9,-,0.03,Rain-Thunderstorm,Thunderstorms and Rain,330,2013-05-27 20:15:00
2:35 PM,55.4,55.4,100,29.72,9.0,NW,17.3,-,0.06,Rain-Thunderstorm,Light Rain,320,2013-05-27 20:35:00
2:55 PM,55.4,55.4,100,29.71,10.0,NNW,19.6,24.2,0.06,Thunderstorm,Thunderstorm,340,2013-05-27 20:55:00
3:15 PM,55.4,55.4,100,29.70,10.0,North,17.3,-,N/A,Thunderstorm,Clear,360,2013-05-27 21:15:00
3:35 PM,57.2,55.4,94,29.71,10.0,NE,10.4,17.3,N/A,,Clear,40,2013-05-27 21:35:00
3:55 PM,59.0,55.4,88,29.73,10.0,NE,11.5,-,N/A,,Clear,50,2013-05-27 21:55:00
4:15 PM,60.8,57.2,88,29.75,10.0,East,8.1,-,N/A,,Clear,80,2013-05-27 22:15:00
4:35 PM,60.8,57.2,88,29.74,10.0,NE,8.1,-,N/A,,Clear,40,2013-05-27 22:35:00
4:55 PM,59.0,55.4,88,29.75,10.0,NNE,10.4,-,N/A,,Partly Cloudy,20,2013-05-27 22:55:00
5:15 PM,59.0,55.4,88,29.74,10.0,NNE,12.7,-,N/A,,Scattered Clouds,20,2013-05-27 23:15:00
5:35 PM,59.0,57.2,94,29.74,10.0,NE,9.2,-,N/A,,Mostly Cloudy,40,2013-05-27 23:35:00
5:55 PM,59.0,55.4,88,29.74,10.0,NNE,8.1,-,N/A,,Overcast,30,2013-05-27 23:55:00
6:15 PM,59.0,55.4,88,29.73,10.0,NNE,3.5,-,N/A,,Overcast,30,2013-05-28 00:15:00
6:35 PM,59.0,55.4,88,29.73,10.0,NE,4.6,-,N/A,,Overcast,50,2013-05-28 00:35:00
6:55 PM,59.0,55.4,88,29.73,10.0,East,3.5,-,N/A,,Overcast,100,2013-05-28 00:55:00
7:15 PM,57.2,55.4,94,29.73,3.0,Calm,Calm,-,N/A,Rain,Light Rain,0,2013-05-28 01:15:00
7:35 PM,55.4,55.4,100,29.74,2.5,SSW,10.4,19.6,0.02,Rain,Light Rain,200,2013-05-28 01:35:00
7:55 PM,53.6,53.6,100,29.73,3.0,West,6.9,-,0.06,Rain,Light Rain,270,2013-05-28 01:55:00
8:15 PM,53.6,53.6,100,29.72,5.0,West,3.5,-,N/A,Rain,Light Rain,270,2013-05-28 02:15:00
8:35 PM,53.6,53.6,100,29.71,10.0,NW,8.1,-,N/A,,Overcast,310,2013-05-28 02:35:00
8:55 PM,53.6,53.6,100,29.70,10.0,NW,8.1,-,N/A,,Mostly Cloudy,310,2013-05-28 02:55:00
9:15 PM,51.8,51.8,100,29.70,10.0,WNW,6.9,-,N/A,,Mostly Cloudy,300,2013-05-28 03:15:00
9:35 PM,51.8,51.8,100,29.71,10.0,WNW,5.8,-,N/A,,Overcast,300,2013-05-28 03:35:00
9:55 PM,51.8,51.8,100,29.72,10.0,West,5.8,-,N/A,,Overcast,270,2013-05-28 03:55:00
10:15 PM,53.6,53.6,100,29.73,10.0,West,3.5,-,N/A,,Overcast,270,2013-05-28 04:15:00
10:35 PM,53.6,53.6,100,29.73,10.0,Calm,Calm,-,N/A,Rain,Light Rain,0,2013-05-28 04:35:00
10:55 PM,53.6,53.6,100,29.72,5.0,West,5.8,-,0.01,Rain,Light Rain,270,2013-05-28 04:55:00
11:15 PM,53.6,53.6,100,29.72,4.0,SW,9.2,-,N/A,Rain,Light Rain,230,2013-05-28 05:15:00
11:35 PM,51.8,51.8,100,29.71,5.0,WSW,9.2,17.3,N/A,,Scattered Clouds,240,2013-05-28 05:35:00
11:55 PM,51.8,51.8,100,29.71,4.0,WSW,13.8,-,0.01,,Scattered Clouds,250,2013-05-28 05:55:00